This demonstration page uses our WeatherBlox Daily Observations layout. Learn more.

Left ArrowRight Arrow

Hourly Observations for May 12, 2020

Temp ( °F °C ) Dew Point ( °F °C ) Humidity (%) Winds ( mph kmh ) Pressure ( in mb ) Visibility ( mi km ) Precip ( " mm )
12:15 am 00:15 Cloudy 38 3.5 35 1.5 87 87 Calm 30.29 1026 10 16.0934 0 0
12:35 am 00:35 Cloudy 38 3.5 34 1.3 86 86 Calm 30.29 1026 10 16.0934 0 0
12:55 am 00:55 Cloudy 38 3.6 34 1.1 84 84 SSE 3 6 30.28 1025 10 16.0934 0 0
1:15 am 01:15 Cloudy 38 3.6 33 0.7 82 82 SSE 5 7 30.28 1025 10 16.0934 0 0
1:35 am 01:35 Cloudy 38 3.6 33 0.8 82 82 Calm 30.27 1025 10 16.0934 0 0
1:55 am 01:55 Cloudy 38 3.5 33 0.8 83 83 Calm 30.27 1025 10 16.0934 0 0
2:15 am 02:15 Cloudy 38 3.5 33 0.8 83 83 Calm 30.26 1025 10 16.0934 0 0
2:35 am 02:35 Cloudy 38 3.6 33 0.7 82 82 Calm 30.26 1025 10 16.0934 0 0
2:55 am 02:55 Cloudy 38 3.6 33 0.8 82 82 Calm 30.26 1025 10 16.0934 0 0
3:15 am 03:15 Cloudy 38 3.5 34 0.9 83 83 Calm 30.25 1024 10 16.0934 0 0
3:35 am 03:35 Cloudy 38 3.6 34 1 83 83 Calm 30.25 1024 10 16.0934 0 0
3:55 am 03:55 Cloudy 38 3.6 33 0.7 82 82 Calm 30.25 1024 10 16.0934 0 0
4:15 am 04:15 Cloudy 39 3.7 33 0.8 82 82 Calm 30.25 1024 10 16.0934 0 0
4:35 am 04:35 Cloudy 39 3.7 33 0.7 81 81 Calm 30.26 1025 10 16.0934 0 0
4:55 am 04:55 Cloudy 38 3.6 33 0.8 82 82 Calm 30.26 1025 10 16.0934 0 0
5:15 am 05:15 Cloudy 39 3.7 33 0.8 82 82 Calm 30.26 1025 10 16.0934 0 0
5:35 am 05:35 Cloudy 39 3.7 33 0.6 80 80 E 3 6 30.25 1024 10 16.0934 0 0
5:55 am 05:55 Cloudy 39 3.8 33 0.8 81 81 Calm 30.25 1024 10 16.0934 0 0
6:15 am 06:15 Cloudy 39 3.9 33 0.6 79 79 Calm 30.25 1024 10 16.0934 0 0
6:35 am 06:35 Cloudy 39 4 33 0.5 78 78 SE 3 6 30.26 1025 10 16.0934 0 0
6:55 am 06:55 Cloudy 39 4 33 0.6 79 79 ESE 5 7 30.25 1024 10 16.0934 0 0
7:15 am 07:15 Cloudy 39 4 33 0.7 79 79 E 5 7 30.26 1025 10 16.0934 0 0
7:35 am 07:35 Cloudy 39 4.1 33 0.6 78 78 E 3 6 30.26 1025 10 16.0934 0 0
7:55 am 07:55 Cloudy 40 4.3 34 1 79 79 E 5 7 30.25 1025 10 16.0934 0 0
8:15 am 08:15 Cloudy 40 4.6 33 0.6 76 76 ESE 6 9 30.25 1024 10 16.0934 0 0
8:35 am 08:35 Cloudy 41 4.8 32 0.2 72 72 E 7 11 30.24 1024 10 16.0934 0 0
8:55 am 08:55 Cloudy 41 5.2 32 0.2 70 70 E 9 15 30.24 1024 10 16.0934 0 0
9:15 am 09:15 Cloudy 42 5.5 32 0 68 68 E 8 13 30.23 1024 10 16.0934 0 0
9:35 am 09:35 Cloudy 43 6 32 -0.1 65 65 E 12 19 30.23 1024 10 16.0934 0 0
9:55 am 09:55 Cloudy 43 6.2 31 -0.8 61 61 ESE 12 19 30.21 1023 10 16.0934 0 0
10:15 am 10:15 Cloudy 44 6.6 31 -0.8 60 60 ESE 12 19 30.2 1023 10 16.0934 0 0
10:35 am 10:35 Cloudy 45 7 31 -0.6 59 59 ESE 12 19 30.19 1022 10 16.0934 0 0
10:55 am 10:55 Cloudy 45 7.1 31 -0.3 60 60 ESE 12 19 30.19 1022 10 16.0934 0 0
11:15 am 11:15 Cloudy 46 7.6 32 -0.1 59 59 SE 12 19 30.18 1022 10 16.0934 0 0
11:35 am 11:35 Cloudy 46 7.5 32 -0.1 59 59 ESE 13 20 30.19 1022 10 16.0934 0 0
11:55 am 11:55 Cloudy 46 7.7 32 0 59 59 SE 13 20 30.17 1022 10 16.0934 0 0
12:15 pm 12:15 Cloudy 47 8.3 32 0.1 57 57 ESE 10 17 30.17 1022 10 16.0934 0 0
12:35 pm 12:35 Cloudy 47 8.5 32 0.2 56 56 ESE 10 17 30.16 1021 10 16.0934 0 0
12:55 pm 12:55 Cloudy 47 8.6 33 0.4 57 57 SE 12 19 30.16 1021 10 16.0934 0 0
1:15 pm 13:15 Cloudy 48 9.1 34 0.9 57 57 SE 13 20 30.14 1021 10 16.0934 0 0
1:35 pm 13:35 Cloudy 50 9.9 35 1.8 57 57 SSE 12 19 30.12 1020 10 16.0934 0 0
1:55 pm 13:55 Cloudy 51 10.3 36 2.2 58 58 SE 14 22 30.1 1019 10 16.0934 0 0
2:15 pm 14:15 Cloudy 51 10.5 35 1.9 56 56 SE 12 19 30.09 1019 10 16.0934 0 0
2:35 pm 14:35 Cloudy 51 10.6 36 2.3 57 57 ESE 10 17 30.09 1019 10 16.0934 0 0
2:55 pm 14:55 Cloudy 52 11.1 37 2.9 57 57 SSE 9 15 30.07 1018 10 16.0934 0 0
3:15 pm 15:15 Cloudy 51 10.6 37 2.8 59 59 SSE 13 20 30.08 1019 10 16.0934 0 0
3:35 pm 15:35 Cloudy 51 10.5 37 3 60 60 SSE 13 20 30.07 1018 10 16.0934 0 0
3:55 pm 15:55 Cloudy 51 10.6 38 3.2 60 60 SSE 13 20 30.07 1018 10 16.0934 0 0
4:15 pm 16:15 Cloudy 51 10.5 38 3.3 61 61 S 12 19 30.07 1018 10 16.0934 0 0
4:35 pm 16:35 Cloudy 51 10.5 38 3.5 62 62 S 12 19 30.06 1018 10 16.0934 0 0
4:55 pm 16:55 Cloudy 52 10.9 39 3.8 62 62 SE 14 22 30.04 1017 10 16.0934 0 0
5:15 pm 17:15 Cloudy 52 11 38 3.6 61 61 SSE 10 17 30.03 1017 10 16.0934 0 0
5:35 pm 17:35 Cloudy 52 11 39 3.8 61 61 SSE 10 17 30.03 1017 10 16.0934 0 0
5:55 pm 17:55 Cloudy 52 11 39 3.9 62 62 SSE 10 17 30.03 1017 10 16.0934 0 0
6:15 pm 18:15 Cloudy 52 10.9 39 3.7 61 61 SE 13 20 30.03 1017 10 16.0934 0 0
6:35 pm 18:35 Cloudy 52 11.1 39 3.9 61 61 SSE 13 20 30.01 1016 10 16.0934 0 0
6:55 pm 18:55 Cloudy 52 11.1 39 4 62 62 SSE 12 19 30 1016 10 16.0934 0 0
7:15 pm 19:15 Cloudy 51 10.7 39 4 64 64 SE 15 24 30 1016 10 16.0934 0 0
7:35 pm 19:35 Cloudy 51 10.7 39 4.1 64 64 SE 15 24 30 1016 10 16.0934 0 0
7:55 pm 19:55 Cloudy 51 10.5 40 4.5 67 67 SE 15 24 30 1016 10 16.0934 0 0
8:15 pm 20:15 Partly Cloudy 50 9.8 40 4.5 70 70 SSE 12 19 29.99 1016 10 16.0934 0 0
8:35 pm 20:35 Mostly Cloudy 50 9.9 41 5.1 72 72 SSE 16 26 30 1016 10 16.0934 0 0
8:55 pm 20:55 Cloudy 49 9.5 41 5.2 75 75 SSE 10 17 30.01 1016 10 16.0934 0 0
9:15 pm 21:15 Cloudy 48 9.1 41 5.2 77 77 SSE 13 20 30.01 1016 10 16.0934 0 0
9:35 pm 21:35 Cloudy 48 9 42 5.5 79 79 SSE 13 20 30 1016 10 16.0934 0 0
9:55 pm 21:55 Cloudy 48 9 42 5.5 79 79 SSE 12 19 30 1016 10 16.0934 0 0
10:15 pm 22:15 Cloudy 48 9 42 5.7 80 80 SSE 15 24 30.01 1016 10 16.0934 0 0
10:35 pm 22:35 Cloudy 48 8.8 42 5.8 82 82 SSE 15 24 30.01 1016 10 16.0934 0 0
10:55 pm 22:55 Cloudy 48 8.7 43 6 83 83 SSE 15 24 30.01 1016 10 16.0934 0 0
11:15 pm 23:15 Cloudy 48 8.7 43 6.1 84 84 SSE 17 28 30.01 1016 10 16.0934 0 0
11:35 pm 23:35 Cloudy 47 8.6 43 6.1 84 84 SSE 14 22 30.02 1016 10 16.0934 0 0
11:55 pm 23:55 Cloudy 47 8.3 43 6.1 86 86 SSE 17 28 30.02 1017 10 16.0934 0 0

Powered by AerisWeather